OpenBCM V1.08-5-g2f4a (Linux)

Packet Radio Mailbox

IZ3LSV

[San Dona' di P. JN]

 Login: GUEST





  
CX2SA  > KEP      04.04.20 01:04l 94 Lines 3938 Bytes #999 (0) @ ARL
BID : ARLK027
Read: GUEST
Subj: ARLK027 Keplerian data
Path: IZ3LSV<I0OJJ<I0OJJ<N6RME<CX2SA
Sent: 200403/2257Z @:CX2SA.SAL.URY.SOAM #:27787 [Salto] FBB7.00e $:ARLK027

>From cx2sa%cx2sa.sal.ury.soam@i0ojj.ampr.org Sat Apr  4 01:00:21 2020
Received: from i0ojj.ampr.org by i0ojj.ampr.org (JNOS2.0n.beta1) with SMTP
	id AA104912 ; Sat, 04 Apr 2020 01:00:21 +0200
Message-Id: <ARLK027@i0ojj.bbs>
>From: cx2sa@cx2sa.sal.ury.soam
X-JNOS-User-Port: Telnet   (i0ojj @ 44.134.32.240)  -> Sending message

From: CX2SA@CX2SA.SAL.URY.SOAM
To  : KEP@ARL


ZCZC SK27
QST de W1AW
Keplerian Bulletin 27  ARLK027
>From ARRL Headquarters
Newington, CT  April 3, 2020
To all radio amateurs

SB KEP ARL ARLK027
ARLK027 Keplerian data

Special thanks to AMSAT-NA (AMSAT.ORG) for the following Keplerian
data.

Decode 2-line elsets with the following key:
1 AAAAAU 00  0  0 BBBBB.BBBBBBBB  .CCCCCCCC  00000-0  00000-0 0  DDDZ
2 AAAAA EEE.EEEE FFF.FFFF GGGGGGG HHH.HHHH III.IIII JJ.JJJJJJJJKKKKKZ
KEY: A-CATALOGNUM B-EPOCHTIME C-DECAY D-ELSETNUM E-INCLINATION F-RAAN
G-ECCENTRICITY H-ARGPERIGEE I-MNANOM J-MNMOTION K-ORBITNUM Z-CHECKSUM

0 AO-07
1 7530U 74089B   20094.48502488 -.00000025 +00000-0 +12427-3 0  9994
2 7530 101.7922 064.6685 0012324 146.8852 001.7551 12.53642838076598
0 FO-29
1 24278U 96046B   20094.55825517 -.00000024 +00000-0 +12348-4 0  9990
2 24278 098.5726 214.2372 0349937 208.6560 149.4950 13.53097010166751
0 ISS
1 25544U 98067A   20094.72069797  .00006673  00000-0  13058-3 0  9994
2 25544  51.6466 356.9510 0003986  83.8758 337.2572 15.48684695220474
0 SO-50
1 27607U 02058C   20094.48080008 +.00000025 +00000-0 +24199-4 0  9996
2 27607 064.5547 243.5902 0057376 196.6374 163.2848 14.75621398929664
0 CO-55
1 27844U 03031E   20094.50783845 +.00000065 +00000-0 +48958-4 0  9996
2 27844 098.6844 103.3667 0008673 272.6853 087.3332 14.22229289869447
0 RS-22
1 27939U 03042A   20094.48755883  .00000139  00000-0  33574-4 0  9991
2 27939  98.0769 230.3558 0012024 225.8917 134.1298 14.66848159883021
0 RS-29
1 32953U 08025A   20094.54713835  .00000037  00000-0  19437-3 0  9995
2 32953  82.5050 324.5055 0018428 216.0575 143.9262 12.43094934538324
0 KKS-1
1 33499U 09002H   20094.58513827 +.00000102 +00000-0 +23013-4 0  9999
2 33499 098.3266 307.1918 0009341 011.7818 348.3607 14.75517074601544
0 AO-71
1 37854U 11061E   20094.41638051  .00001026  00000-0  59559-4 0  9995
2 37854 101.7051 146.9622 0158580 284.9177  73.4524 15.07108838460623
0 AO-73
1 39444U 13066AE  20094.49119108 +.00000255 +00000-0 +37458-4 0  9991
2 39444 097.5599 098.8756 0058654 154.8796 205.5292 14.82088785342264
0 UKUBE 1
1 40074U 14037F   20094.53622982  .00000232  00000-0  34872-4 0  9997
2 40074  98.4537 278.4096 0004848  15.2767 344.8596 14.84222682310643
0 XW-2A
1 40903U 15049E   20094.41169462  .00002494  00000-0  58774-4 0  9997
2 40903  97.2973 143.2822 0013415 167.7208 313.0245 15.42813701254902
0 XW-2F
1 40910U 15049M   20094.48545976  .00001260  00000-0  65598-4 0  9992
2 40910  97.4690  99.1018 0012824 261.6146 250.9426 15.17804424250968
0 XW-2B
1 40911U 15049N   20094.46193606  .00000855  00000-0  47740-4 0  9998
2 40911  97.4765  97.3091 0012277 273.0971 242.4192 15.16139136250807
0 IO-86
1 40931U 15052B   20094.58009021 +.00000695 +00000-0 +76241-5 0  9995
2 40931 005.9947 149.3568 0014022 299.0052 060.8684 14.76631345244175
0 CAS-4B
1 42759U 17034B   20094.47385166  .00000173  00000-0  23995-4 0  9990
2 42759  43.0184  79.0010 0012542 280.7477 223.6617 15.09777228154639
0 CAS-4A
1 42761U 17034D   20094.41960035  .00000275  00000-0  30174-4 0  9991
2 42761  43.0184  78.6462 0012914 281.0415 210.0238 15.09856193154624
0 AO-91
1 43017U 17073E   20094.28721232  .00000620  00000-0  54329-4 0  9990
2 43017  97.7253   9.4149 0255909 295.4338  62.0592 14.78867922128055
0 AO-92
1 43137U 18004AC  20094.43875370 +.00001034 +00000-0 +45671-4 0  9998
2 43137 097.4516 166.0916 0008128 328.3521 031.7226 15.23976122123627

Keplerian bulletins are transmitted twice weekly from W1AW.  The
next scheduled transmission of these data will be Tuesday, April 7,
2020, at 2230z on Baudot and BPSK31.
NNNN



Read previous mail | Read next mail


 14.10.2025 05:06:12lGo back Go up